Fulton, NY

7:33 PM EDT on July 24, 2017 (GMT -0400)
Oswego County

Weather History for KFZY - September, 2013

Change the Weather History Date:

Sunday, September 15, 2013

  Actual Average (KSYR) Record (KSYR)
Temperature  
Mean Temperature 54 °F -  
Max Temperature 64 °F 70 °F 96 °F (1939)
Min Temperature 43 °F 51 °F 33 °F (1913)
Degree Days  
Heating Degree Days 12    
Growing Degree Days 4 (Base 50)    
Moisture  
Dew Point 49 °F    
Average Humidity 80    
Maximum Humidity 93    
Minimum Humidity 58    
Precipitation  
Precipitation 0.03 in - - ()
Sea Level Pressure  
Sea Level Pressure 30.11 in    
Wind  
Wind Speed 4 mph (SW)    
Max Wind Speed 15 mph    
Max Gust Speed 23 mph    
Visibility 10 miles    
Events Rain    
Averages and records for this station are not official NWS values.
T = Trace of Precipitation, MM = Missing Value Source: NWS Daily Summary

Daily Weather History Graph

Daily Weather History Graph

Search for Another Location

Airport or City:

Trip Planner

Search our weather history database for the weather conditions in past years. The results will help you decide how hot, cold, wet, or windy it might be!

Date:

Astronomy

Sep. 15, 2013 Rise Set
Actual Time 6:45 AM EDT 7:15 PM EDT
Civil Twilight 6:16 AM EDT 7:43 PM EDT
Nautical Twilight 5:42 AM EDT 8:17 PM EDT
Astronomical Twilight 5:07 AM EDT 8:52 PM EDT
Moon 4:46 PM EDT (9/15) 2:14 AM EDT (9/15)
Length of Visible Light 13h 27m
Length of Day
12h 29m
Waxing Gibbous, 82% of the Moon is Illuminated
Sep 15
Waxing Gibbous
Sep 19
Full
Sep 26
Last Quarter
Oct 4
New
Oct 11
First Quarter

Hourly Weather History & Observations

Time (EDT) Temp. Dew Point Humidity Pressure Visibility Wind Dir Wind Speed Gust Speed Precip Events Conditions
12:54 AM 44.1 °F 42.1 °F 93% 30.12 in 10.0 mi Calm Calm - N/A   Clear
1:54 AM 43.0 °F 41.0 °F 93% 30.12 in 10.0 mi Calm Calm - N/A   Clear
2:54 AM 48.0 °F 45.0 °F 89% 30.12 in 10.0 mi South 6.9 mph - N/A   Clear
3:54 AM 46.9 °F 44.1 °F 90% 30.12 in 10.0 mi South 4.6 mph - N/A   Clear
4:54 AM 46.9 °F 44.1 °F 90% 30.13 in 10.0 mi South 4.6 mph - N/A   Clear
5:54 AM 45.0 °F 42.1 °F 90% 30.13 in 10.0 mi Calm Calm - N/A   Clear
6:54 AM 44.1 °F 42.1 °F 93% 30.15 in 10.0 mi Calm Calm - N/A   Clear
7:54 AM 46.9 °F 45.0 °F 93% 30.15 in 10.0 mi Calm Calm - N/A   Clear
8:54 AM 51.1 °F 46.9 °F 86% 30.16 in 10.0 mi Calm Calm - N/A   Clear
9:54 AM 57.0 °F 51.1 °F 81% 30.17 in 10.0 mi South 8.1 mph - N/A   Clear
10:54 AM 60.1 °F 50.0 °F 69% 30.16 in 10.0 mi SSW 6.9 mph - N/A   Clear
11:54 AM 63.0 °F 52.0 °F 67% 30.14 in 10.0 mi South 6.9 mph - N/A   Clear
12:54 PM 64.0 °F 48.9 °F 58% 30.13 in 10.0 mi SSW 6.9 mph - N/A   Clear
1:54 PM 64.9 °F 50.0 °F 58% 30.11 in 10.0 mi SW 3.5 mph - N/A   Clear
2:54 PM 64.9 °F 51.1 °F 61% 30.09 in 10.0 mi South 5.8 mph - N/A   Clear
3:54 PM 64.0 °F 50.0 °F 60% 30.08 in 10.0 mi South 4.6 mph - N/A   Clear
4:54 PM 64.0 °F 51.1 °F 63% 30.08 in 10.0 mi South 3.5 mph - N/A   Clear
5:54 PM 62.1 °F 52.0 °F 70% 30.06 in 10.0 mi Calm Calm - N/A   Clear
6:54 PM 59.0 °F 54.0 °F 83% 30.07 in 10.0 mi Calm Calm - N/A   Clear
7:54 PM 57.0 °F 54.0 °F 89% 30.07 in 10.0 mi Calm Calm - N/A   Clear
8:54 PM 57.9 °F 53.1 °F 84% 30.07 in 10.0 mi South 4.6 mph - N/A   Mostly Cloudy
9:54 PM 60.1 °F 53.1 °F 78% 30.07 in 10.0 mi WNW 3.5 mph - 0.00 in   Overcast
10:54 PM 59.0 °F 55.0 °F 87% 30.08 in 5.0 mi NW 15.0 mph 23.0 mph 0.01 in Rain Rain
11:34 PM 57.2 °F 51.8 °F 82% 30.09 in 10.0 mi WNW 13.8 mph 23.0 mph 0.02 in   Overcast
11:41 PM 57.2 °F 51.8 °F 82% 30.10 in 10.0 mi NW 10.4 mph 20.7 mph 0.02 in   Overcast
11:51 PM 57.2 °F 51.8 °F 82% 30.10 in 10.0 mi WNW 10.4 mph - 0.02 in   Overcast
11:54 PM 57.0 °F 52.0 °F 83% 30.10 in 10.0 mi NW 10.4 mph - 0.02 in   Overcast